Flag for U.S.A. Weather past 2 weeks in Gainesville, Florida, U.S.A.

Now
57 °F

Mostly cloudy.


Feels Like: 57 °F
Forecast: 55 / 69 °F
Wind: 5 mph from East

Location: Gainesville Regional Airport

Current Time: Dec 20, 2014 at 11:34:12 PM

Latest Report: Dec 20, 2014 at 10:53 PM


Visibility: 10 mi

Pressure: 30.12 "Hg

Humidity: 93%

Dew point: 55 °F

Location of GainesvilleLocation

Historic Weather in Gainesville — Graph

°F

Gainesville temperature yesterday

Maximum temperature yesterday: 71 °F (at 2:53 PM)
Minimum temperature yesterday: 46 °F (at 5:53 AM)
Average temperature yesterday: 55 °F

Past Weeks' High & Low Weather Summary

 TemperatureHumidityPressure
High80 °F (Dec 6, 2:53 PM)100% (Dec 6, 3:53 AM)30.30 "Hg (Dec 6, 3:53 AM)
Low30 °F (Dec 13, 3:53 AM)19% (Dec 14, 2:53 PM)30.02 "Hg (Dec 9, 3:53 PM)
Average53 °F76%30.14 "Hg
* Reported Dec 5 9:53 PM — Dec 20 9:53 PM, Gainesville, Weather by CustomWeather, © 2014

Note: Actual official high and low records may vary slightly from our data, if they occured in-between our weather recording intervals... More about our weather records

Advertising

Gainesville weather history for previous 24 hours

 ConditionsComfort  
Time TempWeatherWind HumidityBarometerVisibility
9:53 PM
Dec 20
58 °FRain. Overcast.7 mph90%30.12 "Hg7 mi
8:53 PM60 °FOvercast.10 mph78%30.11 "Hg10 mi
7:53 PM62 °FOvercast.8 mph73%30.11 "Hg10 mi
6:53 PM65 °FOvercast.6 mph70%30.09 "Hg10 mi
5:53 PM65 °FPassing clouds.3 mph73%30.08 "Hg10 mi
4:53 PM71 °FPartly sunny.No wind57%30.07 "Hg10 mi
3:53 PM72 °FPassing clouds.3 mph55%30.05 "Hg10 mi
2:53 PM72 °FPartly sunny.3 mph55%30.05 "Hg10 mi
1:53 PM71 °FPartly sunny.3 mph55%30.05 "Hg10 mi
12:53 PM71 °FOvercast.N/A55%30.08 "Hg10 mi
11:53 AM70 °FPassing clouds.8 mph59%30.11 "Hg10 mi
10:53 AM67 °FScattered clouds.No wind53%30.14 "Hg10 mi
9:53 AM62 °FScattered clouds.9 mph58%30.14 "Hg10 mi
8:53 AM56 °FScattered clouds.No wind75%30.14 "Hg10 mi
7:53 AM48 °FScattered clouds.No wind93%30.13 "Hg10 mi
6:53 AM50 °FOvercast.No wind89%30.11 "Hg10 mi
5:53 AM47 °FPassing clouds.No wind90%30.08 "Hg10 mi
4:53 AM44 °FPassing clouds.No wind96%30.08 "Hg10 mi
3:53 AM47 °FClear.No wind93%30.09 "Hg9 mi
2:53 AM46 °FClear.3 mph89%30.09 "Hg10 mi
1:53 AM47 °FClear.No wind83%30.10 "Hg10 mi
12:53 AM46 °FClear.3 mph86%30.10 "Hg10 mi
11:53 PM
Dec 19
51 °FClear.No wind74%30.10 "Hg10 mi
Weather by CustomWeather, © 2014

See weather overviewHow to use our weather pages